VOCI

Cochin International Airport

Airport
ICAO code
VOCI
Summary
ICAO Region
APAC
ICAO Territory
Location

Kochi, Kerala,

Coordinates
10° 9' 6" N , 76° 24' 3" E
KCC
Airport WX
Cumulonimbus
Metar
VOCI 171200Z 27007KT 6000 SCT015 32/24 Q1007 NOSIG

Description

Cochin Airport is an airport serving the city of Kochi (Cochin) in the state of Kerala, India. The airport is located 30 km northeast of the centre of Kochi.

Climatology

Tropical Monsoon climate (Köppen climate classification Am) - monthly mean temperatures above 18°C in every month of the year and features wet and dry seasons. A tropical monsoon climate typically features less pronounced dry seasons than a tropical savanna climate and sees less variance in temperatures during the course of the year. The driest month nearly always occurs at or soon after the "winter" solstice.

Airport map

Aerial View

Airport accidents

SKYbrary Partners:

Safety knowledge contributed by: